Regional Weather Roundup
Issued by NWS

Home | Current Version | Previous Version | Graphics & Text | Print | Product List | Glossary On
Versions: 1 2 3 4 5 6 7 8 9 10 11 12 13 14 15 16 17 18 19 20 21 22 23 24 25 26 27 28 29 30 31 32 33 34 35 36 37 38 39 40 41 42 43 44 45 46 47 48 49 50
000
ASUS43 KLOT 251308
RWRIL

ILLINOIS REGIONAL WEATHER ROUNDUP
NATIONAL WEATHER SERVICE CHICAGO/ROMEOVILLE IL
800 AM CDT WED MAY 25 2016

NOTE: "FAIR" INDICATES FEW OR NO CLOUDS BELOW 12,000 FEET WITH NO
SIGNIFICANT WEATHER AND/OR OBSTRUCTIONS TO VISIBILITY.

* THESE STATIONS ARE NOT UNDER NWS QUALITY CONTROL. THEY ALSO MAY NOT
  REPORT WEATHER SUCH AS PRECIPITATION OR FOG.

ILZ001-002-007-009-015-016-024-251400-
NORTHWEST ILLINOIS

CITY           SKY/WX    TMP DP  RH WIND       PRES   REMARKS
MOLINE         PTSUNNY   70  62  76 S9        29.95F
STERLING*      CLOUDY    71  64  78 SE7       30.00S
SAVANNA*       CLOUDY    70  64  81 SE8       29.96F
$$

ILZ003-004-008-010-011-017-018-251400-
NORTH CENTRAL ILLINOIS

CITY           SKY/WX    TMP DP  RH WIND       PRES   REMARKS
ROCKFORD       CLOUDY    73  64  73 S7        30.00F
FREEPORT*      CLOUDY    69  63  79 S8        30.01S
ROCHELLE*      SUNNY     72  64  78 SW10      30.01S
DE KALB*       SUNNY     71  65  81 S9        30.02S
$$

ILZ005-006-012>014-019>023-251400-
NORTHEAST ILLINOIS

CITY           SKY/WX    TMP DP  RH WIND       PRES   REMARKS
CHICAGO-OHARE  MOSUNNY   72  63  73 S7        30.01R
CHICAGO-MIDWAY MOSUNNY   73  61  65 SW9       30.02R
AURORA         SUNNY     72  64  76 S8        30.02R
LANSING*       SUNNY     70  60  70 S9        30.04R
JOLIET*        CLOUDY    71  64  80 SW5       30.04R
WAUKEGAN       PTSUNNY   74  64  71 SW9       30.01R
DUPAGE AIRPORT MOSUNNY   72  63  73 S7        30.02R
KANKAKEE*      CLOUDY   N/A N/A N/A SW8       30.06R
WHEELING       SUNNY     73  63  70 S10       30.02R
MORRIS*        CLOUDY    69  62  78 S6        30.02R
ROMEOVILLE*    CLOUDY    70  61  71 SW9       30.03R
NORTHERLY ISL    N/A     72  60  66 S9          N/A
NORTHERLY ISL    N/A     72  60  66 S9          N/A
$$

LMZ740>746-251400-
SOUTHERN LAKE MICHIGAN

STATION/POSITION SKY/WX   TEMP    WIND        PRES    VSBY  WAVE
                          AIR SEA DIR/SP/G                  HT/PER
                          (F)     (DEG/KT/KT) (MB)    (MI)  (FT/S)
SOUTHERN BUOY              53 49  170/ 10/ 10 1016.2R         1
WILMETTE HARBOR            60 56  180/  6/  6   N/A           1
HARRISON CRIB              69     180/ 14/ 14   N/A
BURNHAM HARBOR             73     190/  4/  9   N/A
CALUMET HARBOR             69     200/  7/  9 1016.0
BURNS HARBOR               69     180/  8/ 24 1016.9R
MICHIGAN CITY              69     140/  7/  8   N/A
MICHIGAN CITY 6N           63 57  190/  2/  4   N/A           0
ST. JOSEPH                 62 59  190/  2/  4   N/A           1
$$

ILZ025>027-034>036-040-047-049-050-058-095>099-251400-
WEST-CENTRAL ILLINOIS

CITY           SKY/WX    TMP DP  RH WIND       PRES   REMARKS
QUINCY         CLOUDY    67  62  84 S13       29.97S
GALESBURG*     PTSUNNY   68  62  82 SE7       29.97F
MACOMB*        PTSUNNY   66  62  89 S10       30.01R
JACKSONVILLE*  CLOUDY    69  61  77 S10       30.01R
PITTSFIELD*    CLOUDY    67  62  86 S9        30.00S
$$

ILZ028>032-037-038-041>044-048-051>054-059>061-251400-
CENTRAL ILLINOIS

CITY           SKY/WX    TMP DP  RH WIND       PRES   REMARKS
PONTIAC        SUNNY     71  65  80 S9        30.05R
BLOOMINGTON    SUNNY     69  65  87 SW13      30.06R
DECATUR        MOSUNNY   70  62  76 SW10      30.04S
PEORIA         MOSUNNY   68  62  81 S9        30.00F
LACON*         MOSUNNY   70  62  75 S7        30.01S
LINCOLN*       SUNNY     69  64  85 S9        30.03S
SPRINGFIELD    SUNNY     70  62  76 S8        30.01F
TAYLORVILLE    SUNNY     69  63  81 S8        30.02F
$$

ILZ033-039-045-046-055>057-062-063-251400-
EAST-CENTRAL ILLINOIS

CITY           SKY/WX    TMP DP  RH WIND       PRES   REMARKS
CHAMPAIGN      SUNNY     71  61  70 SW13      30.05S
RANTOUL*       CLOUDY    71  64  77 SW12      30.06R
MATTOON        SUNNY     68  61  78 S9        30.05S
PARIS*         SUNNY     72  63  73 SW6       30.08R
$$

ILZ079-100>102-251400-
SOUTHWEST ILLINOIS

CITY           SKY/WX    TMP DP  RH WIND       PRES   REMARKS
ALTON          PTSUNNY   66  63  88 S12       30.02S
CAHOKIA*       CLOUDY    68  61  78 S6        30.01S
SPARTA*        CLOUDY    66  63  89 S9        30.04S
$$

ILZ064>066-069>071-074>076-080>082-084>086-088>090-092>094-251400-
SOUTH-CENTRAL ILLINOIS

CITY           SKY/WX    TMP DP  RH WIND       PRES   REMARKS
CARBONDALE     CLOUDY    67  64  90 S8        30.06F THUNDER
CAIRO*         CLOUDY    66  64  93 S9        30.08S THUNDER
EFFINGHAM*     MOSUNNY   70  65  84 SE7       30.07S
MARION         TSTM      68  66  94 SE8       30.08F
MT. VERNON     PTSUNNY   70  61  73 S7        30.08R
CENTRALIA*     PTSUNNY   69  65  88 S8        30.05S
SALEM*         PTSUNNY   69  63  81 S8        30.06R
METROPOLIS*    CLOUDY    69  66  89 S5        30.11R
$$

ILZ067-068-072-073-078-083-087-091-251400-
SOUTHEAST ILLINOIS

CITY           SKY/WX    TMP DP  RH WIND       PRES   REMARKS
LAWRENCEVILLE  CLOUDY    71  63  75 S8        30.08S
FLORA*         PTSUNNY   69  64  84 S6        30.07S
FAIRFIELD*     CLOUDY    68  63  84 S7        30.08R
HARRISBURG*    CLOUDY    66  64  92 CALM      30.10R
ROBINSON*      SUNNY     69  63  81 S5        30.09S
CARMI*         MOSUNNY   69  66  89 S6        30.08S
$$

ABBREVIATIONS USED IN REMARKS
   TC - TEMPERATURE IN CELSIUS
  WCI - WIND CHILL INDEX
   HX - HEAT INDEX
  VSB - VISIBILITY
$$





USA.gov is the U.S. government's official web portal to all federal, state and local government web resources and services.